Time,TemperatureF,DewpointF,PressureIn,WindDirection,WindDirectionDegrees,WindSpeedMPH,WindSpeedGustMPH,Humidity,HourlyPrecipIn,Conditions,Clouds,dailyrainin,SoftwareType,DateUTC
2013-11-25 00:02:00,-999.0,-99.9,29.98,NE,54,11.0,18.0,-999,-99.99,,,-99.99,,2013-11-25 09:02:00,
2013-11-25 00:22:00,-999.0,-99.9,29.98,ENE,59,13.0,18.0,-999,-99.99,,,-99.99,,2013-11-25 09:22:00,
2013-11-25 00:33:00,-999.0,-99.9,29.98,ENE,62,12.0,17.0,-999,-99.99,,,-99.99,,2013-11-25 09:33:00,
2013-11-25 00:44:00,-999.0,-99.9,29.97,ENE,63,14.0,18.0,-999,-99.99,,,-99.99,,2013-11-25 09:44:00,
2013-11-25 00:53:00,31.0,-99.9,29.97,ENE,62,12.0,20.0,-999,-99.99,,,-99.99,,2013-11-25 09:53:00,
2013-11-25 01:03:00,-999.0,-99.9,29.97,ENE,60,14.0,19.0,-999,-99.99,,,-99.99,,2013-11-25 10:03:00,
2013-11-25 01:12:00,-999.0,-99.9,29.97,ENE,60,14.0,19.0,-999,-99.99,,,-99.99,,2013-11-25 10:12:00,
2013-11-25 01:23:00,-999.0,-99.9,29.97,ENE,59,16.0,19.0,-999,-99.99,,,-99.99,,2013-11-25 10:23:00,
2013-11-25 01:34:00,-999.0,-99.9,29.97,ENE,63,14.0,20.0,-999,-99.99,,,-99.99,,2013-11-25 10:34:00,
2013-11-25 01:53:00,-999.0,-99.9,29.96,ENE,58,15.0,20.0,-999,-99.99,,,-99.99,,2013-11-25 10:53:00,
2013-11-25 02:03:00,-999.0,-99.9,29.96,ENE,65,14.0,21.0,-999,-99.99,,,-99.99,,2013-11-25 11:03:00,
2013-11-25 02:12:00,-999.0,-99.9,29.96,ENE,60,17.0,22.0,-999,-99.99,,,-99.99,,2013-11-25 11:12:00,
2013-11-25 02:33:00,-999.0,-99.9,29.96,ENE,59,16.0,20.0,-999,-99.99,,,-99.99,,2013-11-25 11:33:00,
2013-11-25 02:52:00,-999.0,-99.9,29.95,ENE,59,14.0,19.0,-999,-99.99,,,-99.99,,2013-11-25 11:52:00,
2013-11-25 03:02:00,-999.0,-99.9,29.95,ENE,60,16.0,21.0,-999,-99.99,,,-99.99,,2013-11-25 12:02:00,
2013-11-25 03:12:00,-999.0,-99.9,29.95,ENE,61,16.0,20.0,-999,-99.99,,,-99.99,,2013-11-25 12:12:00,
2013-11-25 03:32:00,-999.0,-99.9,29.95,ENE,61,16.0,22.0,-999,-99.99,,,-99.99,,2013-11-25 12:32:00,
2013-11-25 03:42:00,-999.0,-99.9,29.94,ENE,59,15.0,19.0,-999,-99.99,,,-99.99,,2013-11-25 12:42:00,
2013-11-25 04:02:00,-999.0,-99.9,29.94,ENE,61,14.0,19.0,-999,-99.99,,,-99.99,,2013-11-25 13:02:00,
2013-11-25 04:22:00,-999.0,-99.9,29.93,ENE,59,14.0,18.0,-999,-99.99,,,-99.99,,2013-11-25 13:22:00,
2013-11-25 04:32:00,-999.0,-99.9,29.93,ENE,60,16.0,20.0,-999,-99.99,,,-99.99,,2013-11-25 13:32:00,
2013-11-25 04:42:00,-999.0,-99.9,29.93,NE,55,15.0,20.0,-999,-99.99,,,-99.99,,2013-11-25 13:42:00,
2013-11-25 05:02:00,-999.0,-99.9,29.92,NE,55,13.0,19.0,-999,-99.99,,,-99.99,,2013-11-25 14:02:00,
2013-11-25 05:12:00,-999.0,-99.9,29.92,ENE,58,12.0,20.0,-999,-99.99,,,-99.99,,2013-11-25 14:12:00,
2013-11-25 05:32:00,-999.0,-99.9,29.92,ENE,59,13.0,16.0,-999,-99.99,,,-99.99,,2013-11-25 14:32:00,
2013-11-25 05:52:00,-999.0,-99.9,29.92,ENE,59,11.0,17.0,-999,-99.99,,,-99.99,,2013-11-25 14:52:00,
2013-11-25 06:02:00,-999.0,-99.9,29.91,ENE,57,11.0,15.0,-999,-99.99,,,-99.99,,2013-11-25 15:02:00,
2013-11-25 06:11:00,-999.0,-99.9,29.91,NE,55,13.0,17.0,-999,-99.99,,,-99.99,,2013-11-25 15:11:00,
2013-11-25 06:34:00,-999.0,-99.9,29.90,ENE,57,12.0,15.0,-999,-99.99,,,-99.99,,2013-11-25 15:34:00,
2013-11-25 06:45:00,-999.0,-99.9,29.89,NE,53,13.0,18.0,-999,-99.99,,,-99.99,,2013-11-25 15:45:00,
2013-11-25 07:04:00,-999.0,-99.9,29.89,NE,52,13.0,16.0,-999,-99.99,,,-99.99,,2013-11-25 16:04:00,
2013-11-25 07:23:00,-999.0,-99.9,29.88,NE,50,12.0,16.0,-999,-99.99,,,-99.99,,2013-11-25 16:23:00,
2013-11-25 07:33:00,-999.0,-99.9,29.88,NE,56,11.0,14.0,-999,-99.99,,,-99.99,,2013-11-25 16:33:00,
2013-11-25 07:43:00,-999.0,-99.9,29.87,ENE,61,11.0,14.0,-999,-99.99,,,-99.99,,2013-11-25 16:43:00,
2013-11-25 08:03:00,-999.0,-99.9,29.86,ENE,61,11.0,14.0,-999,-99.99,,,-99.99,,2013-11-25 17:03:00,
2013-11-25 08:22:00,-999.0,-99.9,29.86,ENE,63,11.0,14.0,-999,-99.99,,,-99.99,,2013-11-25 17:22:00,
2013-11-25 08:33:00,-999.0,-99.9,29.85,NE,56,11.0,13.0,-999,-99.99,,,-99.99,,2013-11-25 17:33:00,
2013-11-25 08:43:00,-999.0,-99.9,29.85,ENE,61,10.0,13.0,-999,-99.99,,,-99.99,,2013-11-25 17:43:00,
2013-11-25 09:03:00,-999.0,-99.9,29.85,ENE,60,11.0,13.0,-999,-99.99,,,-99.99,,2013-11-25 18:03:00,
2013-11-25 09:22:00,-999.0,-99.9,29.85,ENE,68,10.0,13.0,-999,-99.99,,,-99.99,,2013-11-25 18:22:00,
2013-11-25 09:33:00,-999.0,-99.9,29.84,ENE,58,9.0,12.0,-999,-99.99,,,-99.99,,2013-11-25 18:33:00,
2013-11-25 09:42:00,-999.0,-99.9,29.84,ENE,59,9.0,13.0,-999,-99.99,,,-99.99,,2013-11-25 18:42:00,
2013-11-25 09:52:00,-999.0,-99.9,29.84,ENE,58,11.0,14.0,-999,-99.99,,,-99.99,,2013-11-25 18:52:00,
2013-11-25 10:02:00,-999.0,-99.9,29.83,ENE,60,9.0,14.0,-999,-99.99,,,-99.99,,2013-11-25 19:02:00,
2013-11-25 10:11:00,-999.0,-99.9,29.83,ENE,71,8.0,11.0,-999,-99.99,,,-99.99,,2013-11-25 19:11:00,
2013-11-25 10:22:00,-999.0,-99.9,29.84,East,85,6.0,8.0,-999,-99.99,,,-99.99,,2013-11-25 19:22:00,
2013-11-25 10:32:00,-999.0,-99.9,29.83,ENE,77,5.0,8.0,-999,-99.99,,,-99.99,,2013-11-25 19:32:00,
2013-11-25 10:42:00,-999.0,-99.9,29.83,ENE,66,5.0,8.0,-999,-99.99,,,-99.99,,2013-11-25 19:42:00,
2013-11-25 11:02:00,-999.0,-99.9,29.82,ENE,74,6.0,7.0,-999,-99.99,,,-99.99,,2013-11-25 20:02:00,
2013-11-25 11:22:00,-999.0,-99.9,29.82,NE,54,6.0,9.0,-999,-99.99,,,-99.99,,2013-11-25 20:22:00,
2013-11-25 11:32:00,-999.0,-99.9,29.81,NE,50,7.0,10.0,-999,-99.99,,,-99.99,,2013-11-25 20:32:00,
2013-11-25 11:42:00,-999.0,-99.9,29.81,ENE,64,8.0,12.0,-999,-99.99,,,-99.99,,2013-11-25 20:42:00,
2013-11-25 11:53:00,33.0,-99.9,29.81,ENE,65,9.0,12.0,-999,-99.99,,,-99.99,,2013-11-25 20:53:00,
2013-11-25 12:22:00,33.0,-99.9,29.82,ENE,75,7.0,12.0,-999,-99.99,,,-99.99,,2013-11-25 21:22:00,
2013-11-25 16:52:00,-999.0,-99.9,29.76,ESE,112,6.0,8.0,-999,-99.99,,,-99.99,,2013-11-26 01:52:00,
2013-11-25 17:02:00,-999.0,-99.9,29.76,East,96,5.0,6.0,-999,-99.99,,,-99.99,,2013-11-26 02:02:00,
2013-11-25 17:11:00,-999.0,-99.9,29.76,ESE,111,5.0,6.0,-999,-99.99,,,-99.99,,2013-11-26 02:11:00,
2013-11-25 17:32:00,-999.0,-99.9,29.75,East,96,6.0,10.0,-999,-99.99,,,-99.99,,2013-11-26 02:32:00,
2013-11-25 17:42:00,-999.0,-99.9,29.75,ESE,119,5.0,7.0,-999,-99.99,,,-99.99,,2013-11-26 02:42:00,
2013-11-25 17:52:00,-999.0,-99.9,29.75,ESE,112,5.0,8.0,-999,-99.99,,,-99.99,,2013-11-26 02:52:00,
2013-11-25 18:02:00,-999.0,-99.9,29.75,SSE,150,5.0,6.0,-999,-99.99,,,-99.99,,2013-11-26 03:02:00,
2013-11-25 18:22:00,-999.0,-99.9,29.75,SSW,198,4.0,4.0,-999,-99.99,,,-99.99,,2013-11-26 03:22:00,
2013-11-25 18:33:00,-999.0,-99.9,29.75,SSW,199,3.0,4.0,-999,-99.99,,,-99.99,,2013-11-26 03:33:00,
2013-11-25 18:44:00,-999.0,-99.9,29.75,SSW,192,4.0,5.0,-999,-99.99,,,-99.99,,2013-11-26 03:44:00,
2013-11-25 19:03:00,-999.0,-99.9,29.75,SW,225,2.0,3.0,-999,-99.99,,,-99.99,,2013-11-26 04:03:00,
2013-11-25 19:13:00,-999.0,-99.9,29.75,WSW,253,1.0,2.0,-999,-99.99,,,-99.99,,2013-11-26 04:13:00,
2013-11-25 19:23:00,-999.0,-99.9,29.75,WSW,242,1.0,2.0,-999,-99.99,,,-99.99,,2013-11-26 04:23:00,
2013-11-25 19:34:00,-999.0,-99.9,29.76,SW,227,1.0,2.0,-999,-99.99,,,-99.99,,2013-11-26 04:34:00,
2013-11-25 19:44:00,-999.0,-99.9,29.76,SW,226,2.0,2.0,-999,-99.99,,,-99.99,,2013-11-26 04:44:00,
2013-11-25 20:03:00,-999.0,-99.9,29.76,SSW,204,3.0,4.0,-999,-99.99,,,-99.99,,2013-11-26 05:03:00,
2013-11-25 20:13:00,-999.0,-99.9,29.76,SSW,198,2.0,3.0,-999,-99.99,,,-99.99,,2013-11-26 05:13:00,
2013-11-25 20:23:00,-999.0,-99.9,29.76,SSW,196,2.0,3.0,-999,-99.99,,,-99.99,,2013-11-26 05:23:00,
2013-11-25 20:34:00,-999.0,-99.9,29.76,SSW,200,2.0,3.0,-999,-99.99,,,-99.99,,2013-11-26 05:34:00,
2013-11-25 20:53:00,-999.0,-99.9,29.76,SW,227,3.0,4.0,-999,-99.99,,,-99.99,,2013-11-26 05:53:00,
2013-11-25 21:03:00,-999.0,-99.9,29.76,SSW,204,2.0,4.0,-999,-99.99,,,-99.99,,2013-11-26 06:03:00,
2013-11-25 21:12:00,-999.0,-99.9,29.76,SSE,155,0.0,2.0,-999,-99.99,,,-99.99,,2013-11-26 06:12:00,
2013-11-25 21:22:00,30.0,-99.9,29.76,SSE,167,1.0,2.0,-999,-99.99,,,-99.99,,2013-11-26 06:22:00,
2013-11-25 21:32:00,-999.0,-99.9,29.76,SW,214,2.0,3.0,-999,-99.99,,,-99.99,,2013-11-26 06:32:00,
2013-11-25 21:42:00,-999.0,-99.9,29.76,South,188,1.0,3.0,-999,-99.99,,,-99.99,,2013-11-26 06:42:00,
2013-11-25 21:52:00,-999.0,-99.9,29.76,SSW,208,1.0,2.0,-999,-99.99,,,-99.99,,2013-11-26 06:52:00,
2013-11-25 22:02:00,-999.0,-99.9,29.76,SSW,199,4.0,4.0,-999,-99.99,,,-99.99,,2013-11-26 07:02:00,
2013-11-25 22:12:00,-999.0,-99.9,29.77,SSE,164,3.0,4.0,-999,-99.99,,,-99.99,,2013-11-26 07:12:00,
2013-11-25 22:32:00,-999.0,-99.9,29.78,SSE,160,4.0,5.0,-999,-99.99,,,-99.99,,2013-11-26 07:32:00,
2013-11-25 22:42:00,-999.0,-99.9,29.78,SSE,162,4.0,5.0,-999,-99.99,,,-99.99,,2013-11-26 07:42:00,
2013-11-25 23:02:00,-999.0,-99.9,29.78,SSE,153,3.0,4.0,-999,-99.99,,,-99.99,,2013-11-26 08:02:00,
2013-11-25 23:22:00,-999.0,-99.9,29.79,SE,138,2.0,4.0,-999,-99.99,,,-99.99,,2013-11-26 08:22:00,
2013-11-25 23:32:00,-999.0,-99.9,29.80,ESE,121,2.0,4.0,-999,-99.99,,,-99.99,,2013-11-26 08:32:00,
2013-11-25 23:42:00,-999.0,-99.9,29.80,SE,126,2.0,4.0,-999,-99.99,,,-99.99,,2013-11-26 08:42:00,